Dewpoint
64 68 73 73 72 71 70 69 70 71 72 73 73 72 72 72 71 70 69 69 71 71 70 70 69 69 69 70 71 70 69 69 69 69 68 69 68 68 67 66 69 64 67
65 68 73 73 72 71 70 71 72 72 72 73 74 72 72 72 71 70 68 68 70 69 70 69 68 68 69 71 70 68 68 68 67 66 67 67 68 66 67 67 70 67 68
65 68 70 72 73 72 72 71 71 71 73 73 73 73 72 72 70 69 68 69 69 70 70 67 68 68 69 70 68 67 66 66 65 64 65 57 61 65 66 66 66 67 68
65 67 68 73 73 72 72 71 71 71 72 73 73 73 73 72 70 69 68 68 69 69 69 68 69 69 69 69 68 65 64 64 63 64 57 55 56 64 64 65 65 65 67
65 67 68 73 73 72 72 71 71 71 71 72 73 72 72 72 69 69 69 70 70 70 69 69 70 69 69 68 67 64 64 64 63 61 59 60 58 62 64 63 63 64 66
65 66 71 72 72 72 72 72 70 70 71 71 72 72 72 71 69 69 70 70 71 70 69 69 70 70 69 68 66 64 65 64 64 59 59 60 60 63 63 64 64 64 64
66 66 69 72 73 72 72 72 70 69 70 71 71 71 71 70 68 67 69 70 69 69 68 69 69 69 69 68 66 65 64 62 58 58 59 60 61 63 63 62 62 63 63
65 66 68 71 72 71 72 71 70 69 69 71 71 71 70 70 68 67 67 68 69 68 68 68 67 67 67 68 66 65 64 64 59 58 59 60 63 63 62 62 62 61 61
66 66 67 69 69 71 71 71 70 69 69 70 70 70 69 69 68 68 68 68 68 68 67 67 66 66 66 65 66 65 64 62 58 59 57 59 65 62 62 62 61 61 61
66 66 67 68 65 64 69 70 69 69 69 69 69 68 67 67 68 67 67 68 67 68 67 66 65 64 64 63 63 63 63 63 58 60 59 60 64 61 61 61 61 60 60
67 67 68 66 62 61 66 68 68 69 68 67 67 65 64 63 63 64 66 67 68 68 67 66 65 63 63 63 62 61 61 56 55 56 58 62 65 63 61 61 60 60 59
66 67 67 63 60 61 67 67 66 64 62 62 64 61 60 60 60 60 64 67 68 68 67 65 64 63 60 53 55 58 54 55 54 55 56 62 63 65 64 63 62 61 60
66 67 66 61 60 62 67 67 66 65 63 59 59 61 60 60 63 62 63 63 63 64 60 61 61 56 54 55 56 55 55 54 54 54 55 60 64 64 65 64 66 64 63
63 66 67 63 59 61 67 67 66 66 64 63 61 57 58 58 60 60 59 61 60 58 58 58 56 56 56 56 57 57 57 58 57 58 57 58 59 62 64 65 64 66 66
61 65 66 65 62 60 65 65 66 66 65 63 64 61 60 58 58 58 57 58 57 57 56 55 54 53 55 57 58 59 58 59 58 59 59 59 59 60 62 64 65 65 65
62 62 65 64 63 61 62 64 65 65 65 66 65 64 63 62 61 60 60 61 61 61 59 57 56 55 57 58 57 57 58 59 59 59 59 60 61 62 63 64 65 65 65
60 62 64 63 62 62 60 61 63 64 64 65 65 65 64 64 63 63 62 62 62 61 59 59 59 58 58 57 57 57 58 59 59 59 59 59 60 62 63 64 65 66 66
61 63 62 64 63 62 62 63 61 62 62 62 63 64 65 64 64 63 63 61 61 61 60 59 59 59 58 55 54 57 59 59 58 57 57 57 58 58 62 64 64 65 65
61 62 62 65 64 63 64 63 63 63 60 59 61 62 63 63 63 62 61 60 60 61 60 58 58 58 56 55 57 58 58 58 57 56 57 57 58 60 59 60 62 62 63
61 62 62 61 64 65 65 65 65 63 60 60 60 61 62 62 63 62 62 60 59 60 59 58 57 58 56 58 58 57 60 58 58 58 58 57 58 58 58 59 60 59 61
61 61 60 61 62 63 63 63 64 64 64 64 62 61 61 60 60 62 64 62 61 59 59 58 57 57 58 60 61 57 57 57 56 56 57 56 56 56 57 58 59 59 60
59 59 60 61 62 62 62 62 62 64 66 66 65 64 63 64 64 64 63 63 61 60 60 60 59 60 62 63 59 59 54 52 53 55 55 55 55 55 55 56 57 59 61
59 60 61 61 62 64 63 65 64 64 65 65 66 65 65 65 65 65 64 64 64 64 64 63 63 62 61 61 59 57 53 51 52 53 54 54 54 54 54 55 54 56 58
61 62 62 62 63 61 64 63 60 61 61 63 64 65 65 65 65 66 65 64 64 64 63 62 61 60 60 58 59 60 59 57 53 52 52 52 53 51 52 52 53 54 55
61 61 61 62 62 62 64 64 63 63 62 62 63 62 63 64 64 64 64 64 64 63 62 61 60 60 60 59 59 59 59 59 59 57 47 46 49 50 52 52 52 52 53
51 52 57 61 61 62 63 63 63 61 63 62 62 62 62 63 64 64 64 65 64 63 62 61 60 60 60 59 59 59 58 52 50 50 50 47 47 48 51 50 51 51 52
Lifted_Index
-1 -2 -2 -2 -1 -0 1 1 0 -0 -0 -1 -1 -0 0 1 1 2 3 3 2 2 2 2 2 3 2 2 2 2 3 3 3 3 3 3 3 3 3 3 2 2 2
-1 -2 -2 -2 -1 -0 1 1 0 -0 -1 -1 -1 -0 0 1 1 2 3 3 3 2 2 2 3 3 2 2 2 3 3 4 4 4 5 4 4 3 3 3 2 2 2
-2 -2 -2 -2 -2 -1 -0 0 -0 -1 -1 -1 -1 -0 -0 1 2 3 3 3 3 2 2 3 3 3 2 2 3 4 4 5 5 6 6 6 5 4 3 3 3 2 2
-2 -2 -2 -2 -2 -1 -0 -0 -0 -1 -1 -1 -1 -0 -0 1 2 3 3 3 3 2 2 3 3 2 2 3 3 5 5 6 6 6 6 6 5 4 4 4 3 3 2
-2 -2 -2 -2 -2 -1 -1 -0 -0 -0 -1 -1 -1 -0 0 1 2 3 3 2 2 2 2 2 2 2 2 3 4 5 5 6 6 6 6 5 5 5 4 4 4 3 3
-3 -3 -3 -3 -2 -1 -1 -1 -0 -0 -0 -1 -0 -0 0 1 2 2 2 2 2 2 2 2 2 2 2 3 4 5 5 6 6 5 5 5 5 4 4 4 4 4 4
-3 -3 -3 -3 -2 -2 -1 -1 0 0 -0 -0 -0 -0 0 1 2 3 3 2 2 2 2 2 2 2 2 3 4 5 5 6 5 5 5 5 4 4 4 4 5 4 4
-3 -2 -2 -2 -2 -2 -1 -1 0 1 0 -0 -0 0 1 2 3 3 3 3 2 2 3 3 3 3 3 3 3 4 5 6 5 5 5 4 4 4 4 5 5 5 5
-3 -2 -2 -2 -1 -1 -1 -1 0 1 1 0 0 1 2 2 3 3 3 3 2 2 3 3 3 3 4 4 4 5 5 5 5 5 4 4 4 4 4 5 5 5 5
-3 -3 -2 -2 -1 -0 -1 -1 0 1 1 1 1 2 3 3 3 3 3 3 2 2 3 3 4 4 5 5 5 6 6 6 5 5 4 4 3 4 4 4 5 5 5
-3 -3 -2 -2 -0 0 -1 -1 -0 1 1 2 2 3 4 4 4 4 3 3 2 2 3 3 4 5 6 6 7 7 6 6 6 5 5 4 3 3 3 4 4 5 5
-2 -3 -2 -1 -0 -0 -1 -1 -0 1 1 2 2 3 4 4 4 4 3 3 3 3 3 4 4 5 6 7 7 7 6 6 6 6 5 5 4 2 2 3 3 4 4
-1 -2 -2 -1 -0 -1 -1 -2 -1 -0 1 2 2 3 3 4 4 4 4 4 4 4 4 4 5 5 6 6 5 5 5 5 5 5 5 5 4 3 2 2 2 2 3
0 -1 -1 -1 0 -0 -2 -2 -2 -1 -0 1 2 3 4 4 4 4 4 4 4 5 5 5 5 5 5 5 4 4 4 4 4 4 4 4 4 3 2 2 1 1 1
1 -0 -1 -0 0 -0 -1 -2 -2 -2 -2 -1 1 2 3 3 4 4 4 4 4 4 5 5 5 5 4 4 3 3 2 2 2 2 3 3 3 3 2 2 1 1 1
1 0 -0 0 1 1 -0 -1 -2 -3 -2 -2 -1 0 1 2 3 3 3 3 3 3 4 4 4 4 3 3 3 2 2 2 1 2 2 2 2 2 2 2 1 1 0
1 1 0 0 1 1 1 -0 -2 -3 -3 -3 -2 -1 -0 1 1 1 1 1 1 2 3 3 3 3 3 3 3 2 2 1 1 1 1 2 2 2 2 2 1 0 0
1 1 0 -0 0 1 1 -0 -1 -2 -2 -2 -2 -2 -1 -0 0 0 0 0 1 1 2 2 2 2 3 3 3 2 1 1 1 1 2 2 2 2 2 2 2 1 1
1 1 1 -0 -0 -0 -1 -1 -2 -2 -2 -2 -2 -1 -1 -1 -0 -0 0 -0 0 1 1 2 2 2 2 2 2 1 1 1 1 1 1 1 2 2 2 2 2 2 2
0 1 1 0 -1 -1 -2 -3 -3 -2 -1 -1 -1 -1 -1 -1 -1 -1 -0 -0 -0 0 1 1 2 2 2 1 1 1 1 1 1 1 1 1 2 2 2 2 2 1 1
0 1 1 0 -1 -1 -2 -3 -3 -3 -2 -1 -1 -1 -1 -1 -1 -1 -1 -0 -0 -0 0 1 1 1 1 0 0 0 1 1 1 1 1 1 2 2 2 2 2 1 1
1 1 0 -0 -1 -1 -2 -2 -2 -2 -2 -2 -2 -2 -1 -2 -2 -1 -1 -0 -0 -0 0 0 0 0 -0 -0 0 0 1 1 1 1 1 2 2 3 3 3 2 2 1
1 1 0 -0 -1 -1 -2 -2 -1 -1 -1 -2 -2 -2 -2 -2 -2 -1 -1 -0 0 0 0 0 0 0 -0 0 1 1 1 2 2 2 2 2 3 3 3 3 3 3 3
1 0 0 0 -0 -1 -1 -1 -1 -1 -1 -1 -2 -2 -2 -2 -1 -1 -1 -0 -0 0 1 1 1 1 1 1 2 2 2 2 2 2 3 3 4 4 4 4 4 4 4
0 0 0 0 -0 -1 -1 -1 -1 -1 -1 -1 -1 -1 -1 -1 -1 -1 -1 -1 -0 0 1 1 2 2 2 2 2 2 2 2 2 3 4 5 5 5 5 5 5 5 5
0 1 0 -0 -1 -1 -1 -1 -1 -1 -1 -1 -1 -1 -1 -1 -1 -1 -1 -1 -0 0 1 1 2 2 2 2 2 2 2 2 2 3 5 5 6 6 6 6 5 6 6